Total_Precipitation_Accumulation
3.92 3.91 3.70 3.58 3.41 3.42 3.69 3.90 3.73 3.78 3.64 3.36 2.97 2.69 2.61 2.49 2.44 2.61 2.75 2.83 2.82 2.90 3.23 3.44 3.37 3.18 3.08 2.89 2.65 2.30 2.12 2.08 1.94 1.70 1.61 1.59 1.52 1.46 1.50 1.57 1.54 1.46 1.43
4.15 4.30 4.07 3.92 3.49 3.30 3.32 3.62 3.71 3.98 3.88 3.63 2.97 2.78 2.74 2.70 2.69 2.60 2.76 3.32 3.41 3.03 3.13 3.52 3.78 3.87 3.74 3.46 3.13 2.77 2.57 2.43 2.18 1.92 1.85 1.83 1.65 1.56 1.67 1.72 1.73 1.58 1.47
4.22 4.23 3.99 3.58 3.21 3.12 3.35 3.41 3.46 3.75 3.58 3.43 3.29 3.21 3.13 3.01 2.87 2.80 2.87 3.42 3.42 3.07 2.99 3.12 3.50 3.89 4.07 4.21 4.05 3.81 3.45 3.03 2.69 2.43 2.19 1.97 1.79 1.65 1.62 1.74 1.87 1.77 1.58
3.55 3.66 3.39 3.06 3.06 3.19 3.37 3.59 3.50 3.59 3.60 3.64 3.73 3.63 3.39 3.25 2.81 2.60 2.50 2.70 3.00 2.70 2.92 3.18 3.35 3.53 4.04 4.56 4.78 4.96 4.59 3.89 3.38 2.93 2.45 2.11 1.88 1.64 1.49 1.57 1.78 1.81 1.65
2.79 3.02 3.05 3.06 2.95 3.11 3.18 2.94 3.35 3.65 3.70 3.71 3.41 3.47 3.05 2.95 2.76 2.42 2.37 2.37 2.56 2.73 2.80 2.86 3.12 3.21 3.72 4.55 5.25 5.83 5.81 5.12 4.23 3.47 2.98 2.53 2.22 1.87 1.63 1.59 1.67 1.72 1.62
2.63 2.96 2.95 2.95 2.91 3.10 3.23 3.28 3.58 3.75 3.44 3.40 3.05 2.99 2.76 2.39 2.39 2.35 2.18 2.27 2.41 2.32 2.52 2.70 3.09 2.91 3.45 4.05 4.82 5.78 6.51 6.21 5.16 4.31 3.87 3.52 3.19 2.66 2.14 1.88 1.77 1.77 1.71
2.82 3.09 2.94 3.10 2.93 2.99 2.99 3.05 3.32 3.47 3.10 3.16 3.64 3.27 2.64 2.20 2.23 2.13 2.16 2.24 2.26 2.32 2.59 2.93 3.18 3.28 3.31 3.24 3.59 4.50 5.67 6.33 6.08 5.27 4.76 4.42 4.07 3.48 2.81 2.39 2.14 2.01 1.88
2.78 2.80 2.97 2.81 2.75 2.93 2.95 3.02 3.30 3.24 2.92 3.13 3.68 3.87 3.31 2.87 2.50 2.05 2.09 2.13 2.20 2.46 2.56 2.62 3.07 3.42 3.41 3.72 3.31 3.35 4.30 5.39 6.12 6.12 5.69 5.00 4.47 3.89 3.36 3.06 2.71 2.42 2.18
2.48 2.56 2.53 2.59 2.73 2.46 2.73 3.04 3.16 3.20 3.16 3.06 3.27 3.80 3.66 3.28 2.85 2.43 2.21 2.27 2.45 2.62 2.70 2.86 2.93 3.18 3.43 4.02 3.94 3.56 3.54 3.94 5.10 6.24 6.48 5.83 4.84 4.14 3.85 3.64 3.48 3.06 2.66
2.20 2.22 2.24 2.47 2.61 2.56 2.88 2.59 2.74 3.03 3.27 3.05 3.04 3.04 3.13 3.38 3.39 3.00 2.55 2.35 2.41 2.53 2.64 2.66 2.76 3.08 3.39 3.77 4.04 3.68 3.32 3.12 3.61 4.76 5.78 5.98 5.34 4.38 3.88 3.90 4.24 3.98 3.33
2.08 1.92 2.09 2.35 2.51 2.56 2.66 2.61 2.74 2.75 2.81 2.82 2.89 2.89 3.07 3.35 3.15 3.05 2.90 2.66 2.50 2.32 2.39 2.54 2.76 3.09 3.18 3.41 3.82 3.53 3.36 2.97 2.82 3.18 3.95 4.62 4.92 4.77 4.33 4.23 4.78 5.13 4.86
2.19 1.99 2.02 2.30 2.40 2.48 2.54 2.58 2.58 2.51 2.61 2.70 2.76 2.79 2.99 3.04 3.02 3.10 2.90 2.69 2.56 2.30 2.24 2.32 2.51 2.68 2.78 2.95 2.84 2.86 2.79 2.76 2.63 2.47 2.61 3.04 3.63 4.16 4.42 4.77 5.23 5.70 6.08
2.11 2.11 2.05 2.41 2.54 2.52 2.46 2.59 2.59 2.54 2.67 2.76 2.79 2.78 2.78 2.74 2.82 3.06 3.09 2.76 2.54 2.29 2.38 2.31 2.27 2.46 2.47 2.77 2.72 2.55 2.39 2.46 2.32 2.10 2.04 2.22 2.59 3.14 3.60 4.07 4.58 5.08 5.57
1.96 2.23 2.36 2.38 2.40 2.44 2.42 2.74 2.54 2.54 2.66 2.70 2.59 2.99 2.90 2.71 3.00 3.24 3.43 3.51 3.11 2.79 2.73 2.48 2.27 2.32 2.39 2.50 2.62 2.57 2.29 2.21 1.98 1.88 1.89 1.96 2.05 2.33 2.71 3.10 3.47 3.80 4.06
1.94 2.19 2.35 2.45 2.43 2.47 2.63 2.87 2.77 2.78 2.90 2.78 2.80 3.10 2.98 2.82 2.94 3.10 3.44 3.79 3.81 3.41 3.16 2.88 2.58 2.42 2.36 2.37 2.53 2.31 2.24 2.31 2.01 1.82 1.85 1.88 1.94 2.02 2.07 2.11 2.26 2.43 2.68
2.12 2.25 2.27 2.30 2.29 2.31 2.51 2.89 2.84 2.84 3.03 2.99 2.98 3.05 3.01 2.86 2.99 3.00 3.17 3.57 3.90 3.87 3.39 2.67 2.61 2.54 2.43 2.18 2.38 2.12 2.12 2.31 2.05 1.84 1.74 1.65 1.66 1.70 1.71 1.75 1.88 1.97 2.09
2.25 2.29 2.30 2.31 2.27 2.19 2.31 2.52 2.59 2.80 2.91 2.97 2.95 3.02 3.02 3.16 3.18 3.05 3.18 3.31 3.54 3.74 3.30 2.62 2.71 2.87 2.84 2.62 2.46 2.25 2.09 2.04 1.99 1.97 1.68 1.58 1.57 1.55 1.62 1.71 1.75 1.80 1.89
2.36 2.39 2.44 2.41 2.18 2.16 2.30 2.38 2.48 2.68 2.81 2.91 3.06 3.20 2.94 3.09 3.21 3.12 3.15 3.13 3.25 3.58 3.38 3.09 3.00 3.11 3.08 2.81 2.61 2.35 1.98 1.77 1.81 2.07 1.78 1.54 1.48 1.53 1.57 1.62 1.63 1.63 1.60
2.41 2.46 2.46 2.36 2.28 2.32 2.42 2.49 2.58 2.71 2.77 2.83 2.98 2.98 2.91 3.09 2.96 3.07 3.17 3.06 3.06 3.10 3.23 3.07 2.86 2.97 2.91 2.74 2.59 2.30 2.04 2.01 1.74 1.77 1.74 1.57 1.51 1.52 1.54 1.51 1.49 1.51 1.54
2.31 2.27 2.22 2.30 2.37 2.40 2.46 2.50 2.50 2.52 2.55 2.60 2.61 2.54 2.48 2.53 2.60 2.82 2.80 2.79 2.89 2.98 3.05 2.91 2.80 2.86 2.88 2.91 2.78 2.44 2.30 2.16 1.91 1.61 1.65 1.66 1.62 1.56 1.53 1.49 1.42 1.44 1.54
2.06 2.21 2.21 2.30 2.37 2.33 2.21 2.33 2.37 2.31 2.47 2.39 2.25 2.20 2.21 2.31 2.36 2.46 2.30 2.42 2.65 2.70 2.75 2.82 2.83 2.98 2.98 3.13 2.97 2.67 2.54 2.43 2.13 1.84 1.80 1.69 1.68 1.63 1.67 1.70 1.64 1.56 1.50
2.17 2.22 2.21 2.32 2.37 2.20 2.31 2.36 2.40 2.40 2.42 2.32 2.26 2.18 2.07 2.11 2.12 2.14 2.11 2.14 2.31 2.44 2.61 2.78 2.79 2.88 2.95 2.98 2.99 2.86 2.74 2.53 2.22 2.03 2.21 2.14 1.93 1.86 1.96 1.88 1.78 1.52 1.37
2.29 2.35 2.43 2.48 2.39 2.50 2.51 2.33 2.37 2.32 2.33 2.32 2.34 2.33 2.03 1.84 2.05 2.00 2.10 2.03 1.97 2.05 2.17 2.33 2.41 2.51 2.78 2.92 3.06 2.98 3.00 2.84 2.48 2.20 2.16 1.95 1.82 1.83 1.97 2.08 1.84 1.41 1.32
2.48 2.53 2.56 2.47 2.43 2.52 2.57 2.24 2.18 2.09 2.11 2.18 2.22 2.28 2.31 2.23 2.23 2.26 2.29 2.20 2.03 1.98 2.12 2.09 2.06 2.29 2.68 3.04 3.12 3.07 3.16 3.00 2.61 2.21 2.11 1.96 1.77 1.73 1.58 1.60 1.65 1.37 1.21
2.61 2.68 2.73 2.70 2.57 2.63 2.57 2.19 2.07 1.93 1.99 2.03 2.08 2.08 2.12 2.05 2.14 2.08 2.02 1.96 1.90 1.81 1.81 1.84 1.83 1.95 2.26 2.69 2.91 2.96 3.08 3.04 2.73 2.34 2.13 2.08 1.83 1.78 1.66 1.51 1.49 1.52 1.34
2.75 2.78 2.66 2.53 2.42 2.45 2.46 2.12 1.92 1.80 1.89 1.96 2.05 2.01 2.00 1.91 1.92 1.82 1.70 1.71 1.63 1.64 1.78 1.80 1.75 1.73 1.84 2.17 2.54 2.53 2.63 2.81 2.57 2.27 1.90 1.88 1.81 1.82 1.79 1.55 1.39 1.38 1.36